Regional Weather Roundup
Issued by NWS Newport/Morehead, NC

Current Version | Previous Version | Text Only | Print | Product List | Glossary On
Versions: 1 2 3 4 5 6 7 8 9 10 11 12 13 14 15 16 17 18 19 20 21 22 23 24 25 26 27 28 29 30 31 32 33 34 35 36 37 38 39 40 41 42 43 44 45 46 47 48 49 50
000 ASUS42 KMHX 230724 RWRMHX WEATHER ROUNDUP FOR EASTERN NORTH CAROLINA NATIONAL WEATHER SERVICE NEWPORT/MOREHEAD CITY NC 300 AM EDT SUN APR 23 2017 NOTE: "FAIR" INDICATES FEW OR NO CLOUDS BELOW 12,000 FEET WITH NO SIGNIFICANT WEATHER AND/OR OBSTRUCTIONS TO VISIBILITY NCZ015>017-031-032-045>047-102-103-230800- NORTH COAST CITY SKY/WX TMP DP RH WIND PRES REMARKS EDENTON CLOUDY 56 53 89 N9 29.97R ELIZABETH CITY CLOUDY 55 54 96 N17 29.95F KITTY HAWK CLOUDY 55 55 100 N8G21 29.93R MANTEO CLOUDY 56 54 95 NE16G24 29.94S $$ NCZ045>047-081-094-103-104-230800- CENTRAL COAST CITY SKY/WX TMP DP RH WIND PRES REMARKS FRISCO CLOUDY 63 59 87 VRB3 29.90F $$ NCZ095-097-098-100-101-230800- SOUTHERN COAST CITY SKY/WX TMP DP RH WIND PRES REMARKS BEAUFORT CLOUDY 64 63 96 N8 29.90F CEDAR ISLAND NOT AVBL JACKSONVILLE CLOUDY 64 62 93 N9 29.90S PINEY ISLAND CLOUDY N/A N/A N/A N6 29.91F WILMINGTON CLOUDY 69 65 86 NE5 29.89F $$ NCZ011>013-027>030-043-044-078>080-089-090>093-098-230800- COASTAL PLAIN CITY SKY/WX TMP DP RH WIND PRES REMARKS AHOSKIE LGT RAIN 55 53 93 N8 29.97F CLINTON CLOUDY 61 61 99 NE6 29.93R ELIZABETHTOWN CLEAR 63 61 93 CALM 29.90S GOLDSBORO CLOUDY 57 57 100 NE6 29.93R GREENVILLE RAIN 54 54 100 NE8 29.98S HAVELOCK NOT AVBL KENANSVILLE CLOUDY 59 57 94 NE5 29.93S KINSTON CLOUDY 57 56 95 NE8 29.95S NEW BERN CLOUDY 59 58 96 NE9 29.94S RICHLANDS CLOUDY 61 58 90 N10 29.92F ROCKY MOUNT LGT RAIN 57 55 93 NE7 29.98R WASHINGTON RAIN 55 54 97 NE7 29.95S WHITEVILLE CLOUDY 67 63 85 CALM 29.88F $$ AMZ130-135-150-152-154-156-158-170-250-252-270-ANZ085-086-088-633-658-670-230800- MARINE OBSERVATIONS STATION/POSITION TIME TEMP WIND PRES WAVE SWELL AIR SEA DIR/SP/G HT/PER HT/PER (UTC) (F) (DEG/KT/KT) (MB) (FT/S) (FT/S) CHESAPEAKE LIGHT NOT AVBL 64 E VA BEACH 0650 54 56 10/ 19/ 23 1012.8 6/ 6 3/11 DUCK 0700 55 62 10/ 18/ 23 1013.1 2 E DUCK 0700 60 N/A 5/ 6 2/11 OREGON INLET 0700 56 72 10/ 11/ 17 1012.9 13E OREGON INLT 0648 59 N/A 6/ 6 5/ 6 HATTERAS CG 0700 63 71 10/ 7/ 12 1012.3 DIAMOND BUOY 0650 66 75 340/ 12/ 16 1012.1 5/ 6 3/ 7 CAPE LOOKOUT 0700 65 20/ 7/ 8 1012.2 BEAUFORT LAB 0700 63 67 20/ 8/ 12 1011.8 30 SE NEW RVR IN 0708 71 300/ 6/ 8 1012.3 30 SE NEW RVR IN 0713 71 N/A 5/ 6 2/13 27 SE WRIGHTSVLE 0708 72 70 210/ 12/ 17 1011.0 5 SE WRIGHTSVLE 0708 70 68 320/ 4/ 8 1011.9 225 S CAPE HAT 0650 72 76 200/ 16/ 17 1014.7 5/11 3/11 41 SE CHARLESTON 0710 75 73 210/ 14/ 17 1011.5 $$

USA.gov is the U.S. government's official web portal to all federal, state and local government web resources and services.